WetterOnline ( https://www.wetteronline.de )

Wetter aktuell Olomouc

Aktuelles Wetter: Luka (515m)

6-stündlich | Neueste Meldungen
Ortszeit Temperatur Wetter
Mi, 08.07. 8:00 13.9° C leicht bewölkt
Mi, 08.07. 2:00 12.5° C leicht bewölkt
Di, 07.07. 20:00 14.0° C fast wolkenlos
Di, 07.07. 14:00 14.7° C bewölkt
Di, 07.07. 8:00 11.5° C fast wolkenlos
Di, 07.07. 2:00 12.4° C bedeckt
Mo, 06.07. 20:00 17.0° C wolkig
Mo, 06.07. 14:00 19.0° C leichte Schauer
Ortszeit Temperatur Wetter
Mi, 08.07. 13:00 18.2° C bewölkt
Mi, 08.07. 12:00 17.7° C wolkig
Mi, 08.07. 11:00 17.7° C wolkig
Mi, 08.07. 10:00 16.6° C leicht bewölkt
Mi, 08.07. 9:00 15.4° C leicht bewölkt
Mi, 08.07. 8:00 13.9° C leicht bewölkt
Ortszeit Relative Feuchte Sichtweite
Mi, 08.07. 8:00 69% 60 km
Mi, 08.07. 2:00 62% 35 km
Di, 07.07. 20:00 67% 70 km
Di, 07.07. 14:00 65% 70 km
Di, 07.07. 8:00 75% 70 km
Di, 07.07. 2:00 64% 35 km
Mo, 06.07. 20:00 78% 70 km
Mo, 06.07. 14:00 80% 50 km
Ortszeit Relative Feuchte Sichtweite
Mi, 08.07. 13:00 46% 60 km
Mi, 08.07. 12:00 48% 60 km
Mi, 08.07. 11:00 53% 60 km
Mi, 08.07. 10:00 65% 60 km
Mi, 08.07. 9:00 65% 60 km
Mi, 08.07. 8:00 69% 60 km
Ortszeit Niederschlagsmenge Niederschlagsart
Mi, 08.07. 8:00 0.1 l/m2 in 12 Std. -
Mi, 08.07. 2:00 0.0 l/m2 in 6 Std. -
Di, 07.07. 20:00 0.0 l/m2 in 12 Std. -
Di, 07.07. 14:00 0.0 l/m2 in 6 Std. -
Di, 07.07. 8:00 0.0 l/m2 in 12 Std. -
Di, 07.07. 2:00 0.0 l/m2 in 6 Std. -
Mo, 06.07. 20:00 2 l/m2 in 12 Std. Schauer
Mo, 06.07. 14:00 0.1 l/m2 in 6 Std. Schauer
Ortszeit Niederschlagsmenge Niederschlagsart
Mi, 08.07. 13:00 0.0 l/m2 in 1 Std. -
Mi, 08.07. 12:00 0.0 l/m2 in 1 Std. -
Mi, 08.07. 11:00 0.0 l/m2 in 1 Std. -
Mi, 08.07. 10:00 0.0 l/m2 in 1 Std. -
Mi, 08.07. 9:00 0.0 l/m2 in 1 Std. -
Mi, 08.07. 8:00 0.0 l/m2 in 1 Std. -
Ortszeit Stärke Spitze Richtung
km/h Bft. km/h Grad Sektor
Mi, 08.07. 8:00 4 1 - uml. uml.
Mi, 08.07. 2:00 14 3 - 220° SW
Di, 07.07. 20:00 4 1 - uml. uml.
Di, 07.07. 14:00 14 3 - 320° NW
Di, 07.07. 8:00 22 4 43 310° NW
Di, 07.07. 2:00 18 3 43 310° NW
Mo, 06.07. 20:00 11 2 50 300° NW
Mo, 06.07. 14:00 29 5 50 290° W
Ortszeit Stärke Spitze Richtung
km/h Bft. km/h Grad Sektor
Mi, 08.07. 13:00 14 3 - 260° W
Mi, 08.07. 12:00 11 2 - 180° S
Mi, 08.07. 11:00 7 2 - 250° W
Mi, 08.07. 10:00 4 1 - - -
Mi, 08.07. 9:00 7 2 - - -
Mi, 08.07. 8:00 4 1 - uml. uml.
Ortszeit Untergrenze Bedeckung Gattung
total tief tief mittel hoch
Mi, 08.07. 8:00 2700 m 6/8 4/8 - Ac Cc
Mi, 08.07. 2:00 2100 m - 3/8 - - -
Di, 07.07. 20:00 1200 m 1/8 1/8 Cu Ac -
Di, 07.07. 14:00 960 m 7/8 7/8 Cu - -
Di, 07.07. 8:00 570 m 1/8 1/8 Cu Ac -
Di, 07.07. 2:00 4500 m - 8/8 - - -
Mo, 06.07. 20:00 1380 m 7/8 3/8 Cu Ac -
Mo, 06.07. 14:00 1200 m 7/8 6/8 Cu Ac Ci
Ortszeit Bedeckungsgrad in Achtel und Wolkenuntergrenze
Mi, 08.07. 13:00 2(1380m) 7(2400m)
Mi, 08.07. 12:00 2(1200m) 3(2700m) 6(6600m)
Mi, 08.07. 11:00 2(1050m) 3(2700m) 6(7500m)
Mi, 08.07. 10:00 1(690m) 5(7500m)
Mi, 08.07. 9:00 1(3600m) 6(5400m)
Mi, 08.07. 8:00 4(2700m) 6(7200m)
Ortszeit Luftdruck NN (hPa) Tendenz (hPa in 3 Std.)
Mi, 08.07. 8:00 1017 - 0,3
Mi, 08.07. 2:00 1018 - 0,6
Di, 07.07. 20:00 1018 - 0,3
Di, 07.07. 14:00 1019 + 0,2
Di, 07.07. 8:00 1019 + 1,6
Di, 07.07. 2:00 1016 + 1,8
Mo, 06.07. 20:00 1011 + 0,9
Mo, 06.07. 14:00 1010 - 0,1
Ortszeit Luftdruck NN (hPa) Tendenz (hPa in 3 Std.)
Mi, 08.07. 13:00 1016 - 0,6
Mi, 08.07. 12:00 1016 - 0,1
Mi, 08.07. 11:00 1016 + 0,1
Mi, 08.07. 10:00 1016 + 0,5
Mi, 08.07. 9:00 1016 + 0,2
Mi, 08.07. 8:00 1017 - 0,3
Ortszeit Schneehöhe (cm)
Mi, 08.07. 8:00 -
Mi, 08.07. 2:00 -
Di, 07.07. 20:00 -
Di, 07.07. 14:00 -
Di, 07.07. 8:00 -
Di, 07.07. 2:00 -
Mo, 06.07. 20:00 -
Mo, 06.07. 14:00 -
Ortszeit Schneehöhe (cm)
Mi, 08.07. 13:00 -
Mi, 08.07. 12:00 -
Mi, 08.07. 11:00 -
Mi, 08.07. 10:00 -
Mi, 08.07. 9:00 -
Mi, 08.07. 8:00 -
Link zu dieser Seite / Seite empfehlen

Das Wetter in ...